[[{"header":{"parameterUnit":"m.s-1","parameterCategory":1,"la1":30.2991,"la2":30.254,"lo1":-89.0895,"lo2":-89.0444,"dy":0.0017,"dx":0.0017,"nx":28,"ny":28,"refTime":"2025-05-23T09:00:00:Z","depth":0,"parameterNumber":2,"parameterNumberName":"U-component_of_WINDS"},"data":[0,0,0,0,0,0,0,0,0,0,0,0,0,0,0,0,0,0,0,0,0,0,0,0,0,0,0,0,0,0,0,0,0,0,0,0,0,0,0,0,0,0,0,0,0,0,0,0,0,0,0,0,0,0,0,0,0,0,-1.0231,-1.0229,0,-1.0053,-1.0051,-1.0049,-0.9952,-0.9952,-0.9952,-0.9951,-0.9765,-0.976,-0.9755,0,0,0,0,0,0,0,0,0,0,0,0,0,-1.0482,-1.0478,-1.0231,-1.0229,-1.0226,-1.0053,-1.0051,-1.0049,-0.9952,-0.9952,-0.9951,-0.9951,-0.9766,-0.9761,-0.9755,0,0,0,0,0,0,0,0,0,0,0,0,0,-1.0346,-1.0477,-1.0231,-1.0157,-1.0149,-1.0054,-1.0051,-1.0048,-0.9952,-0.9952,-0.9951,-0.9951,-0.9768,-0.9761,-0.9754,-0.9717,0,0,-0.9732,-0.9729,0,0,0,0,0,0,0,0,-1.0353,-1.0336,-1.017,-1.0162,-1.0153,-1.0024,-1.0071,-0.9937,-0.9952,-1.0027,-0.9951,-0.9951,-0.9851,-0.9837,-0.9804,-0.9708,-0.97,-0.9732,-0.9727,-0.9724,-0.9722,0,0,0,0,0,0,0,-1.0363,-1.0344,-1.016,-1.0168,-1.0157,-1.0132,-1.0112,-1.0045,-0.9943,-1.002,-1.0013,-0.9993,-0.9846,-0.9812,-0.9799,-0.9698,-0.9732,-0.9726,-0.9721,-0.9718,-0.9562,-0.9562,0,0,0,0,0,0,-1.0385,-1.0352,-1.0166,-1.0155,-1.0254,-1.0128,-1.0106,-1.0066,-0.9943,-0.9924,-0.9994,-0.9989,-0.9824,-0.9808,-0.9792,-0.974,-0.9724,-0.9718,-0.9714,-0.9562,-0.9562,-0.9562,0,0,0,0,0,0,-1.0391,-1.0369,-1.0173,-1.0251,-1.0225,-1.0124,-1.008,-1.0063,-1.0028,-0.9923,-0.9904,-0.9978,-0.9823,-0.9802,-0.9737,-0.9732,-0.9715,-0.9708,-0.9561,-0.9562,-0.9562,-0.9636,0,0,0,0,0,0,-1.0398,-1.0372,-1.0358,-1.0252,-1.0221,-1.0122,-1.008,-1.0059,-1.0016,-1.0009,-0.9903,-0.9885,-0.9821,-0.9748,-0.973,-0.9722,-0.9702,-0.9561,-0.9561,-0.9562,-0.9633,-0.9639,-0.9643,0,0,0,0,0,-1.0408,-1.0385,-1.0358,-1.0336,-1.0201,-1.0122,-1.0104,-1.0032,-1.0017,-1.0001,-0.9934,-0.9888,-0.9737,-0.9742,-0.9721,-0.9711,-0.9561,-0.9561,-0.9562,-0.9631,-0.9637,-0.9643,0,0,0,0,0,0,-1.0491,-1.0369,-1.0338,-1.028,-1.0213,-1.0106,-1.0083,-1.0041,-0.9975,-0.997,-0.9883,-0.986,-0.9802,-0.975,-0.9758,-0.9668,-0.9644,-0.964,-0.9704,-0.9709,-0.9714,-0.9727,-0.9697,0,0,0,0,0,-1.0503,-1.045,-1.0346,-1.0305,-1.0273,-1.0185,-1.0147,-1.0098,-1.0023,-0.9994,-0.9922,-0.985,-0.9785,-0.9745,-0.968,-0.9626,-0.9601,-0.9609,-0.9614,-0.9618,-0.9615,-0.9582,-0.9584,-0.9563,-0.9563,-0.9563,0,0,-1.0526,-1.0454,-1.0425,-1.032,-1.0262,-1.0208,-1.0161,-1.0105,-1.0064,-0.9984,-0.9918,-0.9864,-0.9777,-0.9717,-0.9687,-0.9672,-0.9616,-0.9619,-0.9623,-0.9617,-0.9582,-0.9584,-0.9586,-0.9563,-0.9563,-0.9563,0,0,-1.0541,-1.0482,-1.044,-1.0383,-1.0296,-1.0237,-1.0228,-1.0128,-1.0089,-1.0021,-0.9961,-0.991,-0.9801,-0.9742,-0.9698,-0.9692,-0.9647,-0.9673,-0.9697,-0.9666,-0.9668,-0.9669,-0.9665,-0.9665,-0.9671,-0.9671,-0.9671,0,-1.058,-1.0497,-1.0424,-1.0372,-1.0327,-1.0256,-1.0213,-1.016,-1.0056,-1.0026,-1.0012,-0.9874,-0.9811,-0.9736,-0.9735,-0.9702,-0.9687,-0.9683,-0.9674,-0.9674,-0.9674,-0.9669,-0.9668,-0.9675,-0.9674,-0.9674,-0.9674,0,-1.0549,-1.0493,-1.047,-1.0373,-1.0326,-1.0279,-1.0197,-1.0158,-1.0114,-1.0057,-0.9989,-0.9911,-0.9829,-0.9808,-0.9763,-0.9726,-0.9719,-0.9691,-0.9664,-0.9681,-0.9674,-0.9672,-0.968,-0.9679,-0.9677,-0.9677,0,0,-1.0609,-1.0473,-1.0466,-1.042,-1.032,-1.0274,-1.0223,-1.0145,-1.0112,-1.0043,-0.9998,-0.9909,-0.9881,-0.9832,-0.978,-0.9753,-0.9751,-0.9726,-0.9723,-0.9732,-0.9704,-0.9725,-0.9724,-0.9723,-0.9722,-0.9721,-0.971,0,-1.0607,-1.0514,-1.0448,-1.038,-1.0326,-1.0258,-1.0214,-1.0147,-1.0092,-1.0038,-0.9977,-0.9915,-0.9885,-0.9854,-0.9824,-0.9758,-0.9744,-0.9758,-0.9677,-0.9675,-0.9698,-0.9721,-0.9742,-0.9736,-0.9708,-0.9707,-0.9707,0,-1.0592,-1.0527,-1.0454,-1.0359,-1.0334,-1.0296,-1.0218,-1.0168,-1.009,-1.0053,-0.9998,-0.9946,-0.9888,-0.9869,-0.9788,-0.9799,-0.9762,-0.9725,-0.9723,-0.971,-0.969,-0.9707,-0.9732,-0.9731,-0.9703,-0.9703,-0.9704,0,-1.0641,-1.0535,-1.0477,-1.0441,-1.0329,-1.0304,-1.0256,-1.0178,-1.0135,-1.0067,-1.0038,-0.9965,-0.9924,-0.9868,-0.9796,-0.9789,-0.9722,-0.9697,-0.9687,-0.9689,-0.9673,-0.9675,-0.9691,-0.9654,-0.9654,-0.9654,-0.9654,0,-1.0644,-1.0602,-1.0497,-1.0462,-1.0412,-1.0336,-1.0289,-1.0235,-1.0167,-1.0118,-1.0056,-1.0011,-0.9921,-0.9866,-0.981,-0.975,-0.9732,-0.9699,-0.9684,-0.9703,-0.9707,-0.9676,-0.9674,-0.9654,-0.9654,-0.9654,-0.9654,0,-1.0689,-1.0617,-1.055,-1.0451,-1.0425,-1.0392,-1.0306,-1.0269,-1.0212,-1.0152,-1.0133,-1.0044,-0.9975,-0.99,-0.9806,-0.9768,-0.9711,-0.9691,-0.9738,-0.9729,-0.9722,-0.9723,-0.9717,-0.9711,-0.9681,-0.9682,-0.9682,0,-1.0695,-1.0661,-1.0558,-1.0522,-1.0476,-1.0419,-1.0376,-1.03,-1.0257,-1.0166,-1.0139,-1.0067,-1.0004,-0.9898,-0.9824,-0.9751,-0.9728,-0.9731,-0.9716,-0.9736,-0.9725,-0.9727,-0.9723,-0.9734,-0.9735,-0.9735,-0.9736,0,-1.0712,-1.0679,-1.0619,-1.0547,-1.0498,-1.0437,-1.0373,-1.0347,-1.0259,-1.0213,-1.0144,-1.0096,-1.0001,-0.9929,-0.9848,-0.9796,-0.9751,-0.9741,-0.9735,-0.9753,-0.978,-0.9763,-0.9747,-0.9741,-0.974,-0.974,-0.974,-0.974,-1.0736,-1.0702,-1.0625,-1.0561,-1.0506,-1.0448,-1.0408,-1.0347,-1.0288,-1.0205,-1.0164,-1.0095,-1.0018,-0.9904,-0.9855,-0.9799,-0.9784,-0.9775,-0.9772,-0.977,-0.9775,-0.9792,-0.9784,-0.9783,-0.9783,-0.9783,-0.9783,0,-1.0748,-1.0696,-1.0638,-1.0552,-1.0501,-1.0465,-1.0393,-1.0353,-1.0293,-1.0226,-1.0166,-1.0086,-1.0016,-0.9938,-0.9863,-0.9832,-0.981,-0.9815,-0.9815,-0.9804,-0.9793,-0.9805,-0.9835,-0.9835,-0.9835,-0.9835,-0.9835,-0.9835,-1.0749,-1.069,-1.0648,-1.0561,-1.0508,-1.044,-1.0402,-1.0348,-1.0294,-1.0208,-1.0151,-1.01,-1.0028,-0.9948,-0.9882,-0.986,-0.9835,-0.9846,-0.9818,-0.9809,-0.9805,-0.9801,-0.9812,-0.9842,-0.9842,-0.9833,-0.9833,-0.9833]},{"header":{"parameterUnit":"m.s-1","parameterCategory":1,"la1":30.2991,"la2":30.254,"lo1":-89.0895,"lo2":-89.0444,"dy":0.0017,"dx":0.0017,"nx":28,"ny":28,"refTime":"2025-05-23T09:00:00:Z","depth":0,"parameterNumber":3,"parameterNumberName":"V-component_of_WINDS"},"data":[0,0,0,0,0,0,0,0,0,0,0,0,0,0,0,0,0,0,0,0,0,0,0,0,0,0,0,0,0,0,0,0,0,0,0,0,0,0,0,0,0,0,0,0,0,0,0,0,0,0,0,0,0,0,0,0,0,0,4.4448,4.4447,0,4.4396,4.4396,4.4395,4.4374,4.4374,4.4375,4.4375,4.4316,4.4314,4.4312,0,0,0,0,0,0,0,0,0,0,0,0,0,4.4523,4.4522,4.4448,4.4447,4.4446,4.4396,4.4396,4.4395,4.4374,4.4374,4.4375,4.4375,4.4316,4.4314,4.4312,0,0,0,0,0,0,0,0,0,0,0,0,0,4.4483,4.4521,4.4448,4.443,4.4428,4.4396,4.4396,4.4395,4.4374,4.4374,4.4375,4.4375,4.4317,4.4314,4.4312,4.4292,0,0,4.4304,4.4303,0,0,0,0,0,0,0,0,4.4485,4.448,4.4434,4.4431,4.4429,4.4392,4.44,4.436,4.4374,4.4395,4.4375,4.4375,4.4341,4.4336,4.4326,4.4289,4.4287,4.4304,4.4302,4.4301,4.4301,0,0,0,0,0,0,0,4.4488,4.4482,4.4427,4.4433,4.443,4.4423,4.4418,4.4393,4.4367,4.4393,4.4391,4.4386,4.4339,4.4328,4.4324,4.4286,4.4304,4.4302,4.43,4.4299,4.423,4.423,0,0,0,0,0,0,4.4494,4.4484,4.4429,4.4426,4.4458,4.4422,4.4416,4.4404,4.4367,4.4362,4.4386,4.4385,4.4332,4.4327,4.4322,4.4296,4.4301,4.4299,4.4297,4.423,4.423,4.4229,0,0,0,0,0,0,4.4496,4.4489,4.4431,4.4455,4.4447,4.442,4.4407,4.4402,4.4391,4.4362,4.4356,4.4379,4.4332,4.4326,4.43,4.4294,4.4298,4.4295,4.423,4.423,4.423,4.4244,0,0,0,0,0,0,4.4498,4.449,4.4484,4.4455,4.4446,4.4411,4.4407,4.4401,4.4388,4.4387,4.4354,4.4349,4.4332,4.4304,4.4297,4.429,4.4293,4.4231,4.423,4.423,4.4244,4.4245,4.4245,0,0,0,0,0,4.4501,4.4488,4.4483,4.4477,4.4437,4.4411,4.4406,4.4388,4.4388,4.438,4.4361,4.435,4.4296,4.4301,4.4294,4.4286,4.4231,4.423,4.423,4.4244,4.4245,4.4245,0,0,0,0,0,0,4.4515,4.4484,4.4478,4.4456,4.4437,4.4408,4.4397,4.4389,4.4367,4.4367,4.4344,4.4336,4.4313,4.4297,4.4304,4.4265,4.4263,4.426,4.4276,4.4276,4.4276,4.428,4.4291,0,0,0,0,0,4.4516,4.4499,4.4473,4.4456,4.4447,4.4424,4.4412,4.44,4.4378,4.4369,4.4348,4.4325,4.4303,4.4289,4.4266,4.4242,4.4234,4.4233,4.4233,4.4233,4.4231,4.4217,4.4216,4.4227,4.4227,4.4227,0,0,4.4517,4.4498,4.4488,4.4458,4.4442,4.4423,4.4417,4.4398,4.4384,4.4365,4.4341,4.4324,4.4297,4.4273,4.426,4.4258,4.4227,4.4233,4.4233,4.4231,4.4216,4.4215,4.4215,4.4227,4.4227,4.4227,0,0,4.4509,4.4494,4.4478,4.4462,4.4438,4.4424,4.442,4.4392,4.4382,4.4357,4.4343,4.4325,4.4287,4.4269,4.4254,4.4241,4.423,4.4234,4.4235,4.4221,4.422,4.4219,4.4214,4.4213,4.4232,4.4232,4.4232,0,4.4513,4.4487,4.4471,4.4453,4.444,4.4425,4.4408,4.4393,4.4362,4.4352,4.4351,4.4304,4.4285,4.4255,4.4252,4.4241,4.4235,4.4237,4.4222,4.4221,4.422,4.4215,4.4213,4.4233,4.4233,4.4233,4.4233,0,4.4492,4.4475,4.4465,4.4438,4.4423,4.4406,4.4386,4.4373,4.4363,4.4347,4.4322,4.4299,4.4272,4.4264,4.4252,4.4233,4.4232,4.4227,4.4224,4.422,4.4215,4.4212,4.4234,4.4234,4.4233,4.4233,0,0,4.4491,4.4457,4.4454,4.4442,4.4414,4.4399,4.4381,4.4357,4.4346,4.4325,4.4308,4.4277,4.4273,4.4256,4.4243,4.4231,4.4222,4.4227,4.4226,4.4226,4.4198,4.4202,4.42,4.4215,4.4214,4.4214,4.42,0,4.448,4.4449,4.4435,4.4409,4.4392,4.4378,4.4362,4.4343,4.4328,4.431,4.4293,4.4272,4.4267,4.4257,4.4245,4.4226,4.4216,4.4226,4.4197,4.4197,4.4205,4.4198,4.4202,4.419,4.4198,4.4198,4.4197,0,4.4463,4.4445,4.4419,4.4394,4.4386,4.4373,4.4349,4.4333,4.431,4.43,4.4283,4.427,4.4249,4.4248,4.4218,4.4225,4.4213,4.4201,4.42,4.4197,4.4197,4.4193,4.4186,4.4184,4.4194,4.4194,4.4195,0,4.4465,4.4434,4.4414,4.4404,4.4375,4.4365,4.4352,4.433,4.4317,4.4296,4.4287,4.4263,4.425,4.4231,4.4211,4.4213,4.4182,4.418,4.4172,4.4173,4.4166,4.4167,4.4156,4.4158,4.4158,4.4159,4.4159,0,4.4454,4.4438,4.4415,4.4403,4.4385,4.4367,4.4349,4.4334,4.4315,4.4299,4.4284,4.4269,4.4244,4.4225,4.4209,4.4186,4.418,4.4171,4.4167,4.4172,4.4173,4.4163,4.4163,4.4158,4.4158,4.4158,4.4158,0,4.4453,4.4437,4.4414,4.4389,4.4383,4.437,4.4348,4.4335,4.432,4.43,4.4293,4.4269,4.4246,4.4226,4.4194,4.4183,4.416,4.4155,4.4168,4.4166,4.416,4.416,4.4142,4.4138,4.4143,4.4143,4.4143,0,4.4447,4.4435,4.4409,4.4398,4.4387,4.4369,4.4356,4.4338,4.4324,4.4298,4.4288,4.4265,4.4245,4.4208,4.4187,4.4162,4.4156,4.4152,4.4152,4.4158,4.4156,4.4157,4.4155,4.4151,4.4152,4.4152,4.4152,0,4.4437,4.443,4.4413,4.4394,4.4379,4.4362,4.4344,4.4336,4.4314,4.43,4.4277,4.4262,4.4231,4.4208,4.4181,4.4165,4.4154,4.4152,4.4149,4.4154,4.4162,4.4157,4.4169,4.4152,4.4152,4.4152,4.4152,4.4152,4.4433,4.4422,4.4403,4.4385,4.437,4.4354,4.4341,4.4325,4.4307,4.4282,4.4272,4.4249,4.4226,4.419,4.4175,4.4155,4.4153,4.4149,4.4147,4.4146,4.4147,4.4166,4.415,4.415,4.415,4.415,4.415,0,4.4423,4.4411,4.4394,4.4371,4.4356,4.435,4.433,4.4317,4.4298,4.4279,4.4261,4.4235,4.4212,4.4189,4.4165,4.4153,4.4148,4.4147,4.4148,4.4144,4.4151,4.4156,4.4152,4.4152,4.4152,4.4152,4.4152,4.4152,4.4417,4.4398,4.4389,4.4362,4.4349,4.4328,4.4317,4.4302,4.4287,4.4259,4.4241,4.4227,4.4206,4.418,4.4159,4.4152,4.4144,4.4145,4.4137,4.4144,4.4144,4.4144,4.4148,4.4143,4.4143,4.4132,4.4132,4.4132]}]]